Location: Bishopstone
(51.0167°N, 1.9000°W)
Time: 10:51:03
(UTC+00:00)

CZ-4C R/B - Pass Details

Date: 16 September 2019
Orbit: 654 x 1348 km, 63.4° (Epoch: 14 October)

Event Time Altitude Azimuth Distance (km) Brightness Sun altitude
Rises 19:24:07 0° 267° (W) 3,276 6.8 -10.7°
Reaches altitude 10° 19:26:37 10° 278° (W) 2,439 6.1 -11.0°
Maximum altitude 19:31:44 33° 342° (NNW) 1,521 3.9 -11.8°
Drops below altitude 10° 19:37:43 10° 45° (NE) 2,880 4.7 -12.7°
Sets 19:40:55 0° 54° (NE) 3,958 5.4 -13.2°
